Weather History for Le Mars, IA

Change the Weather History Date:

Monday, November 4, 2013

  Actual Average Record
Temperature  
Mean Temperature 40 °F -  
Max Temperature 53 °F 49 °F 76 °F (1975)
Min Temperature 28 °F 28 °F -3 °F (1991)
Degree Days  
Heating Degree Days 24    
Moisture  
Dew Point 35 °F    
Average Humidity 70    
Maximum Humidity 93    
Minimum Humidity 41    
Precipitation  
Precipitation 0.00 in - - ()
Sea Level Pressure  
Sea Level Pressure 29.94 in    
Wind  
Wind Speed 11 mph (West)    
Max Wind Speed 20 mph    
Max Gust Speed 25 mph    
Visibility 10 miles    
Events      
Averages and records for this station are not official NWS values.
T = Trace of Precipitation, MM = Missing Value Source: NWS Daily Summary

Daily Weather History Graph

Daily Weather History Graph

Search for Another Location

Airport:

Trip Planner

Search our weather history database for the weather conditions in past years. The results will help you decide how hot, cold, wet, or windy it might be!

Date:

Astronomy

Nov. 04, 2013 Rise Set
Actual Time 7:02 AM CST 5:13 PM CST
Civil Twilight 6:33 AM CST 5:42 PM CST
Nautical Twilight 5:59 AM CST 6:16 PM CST
Astronomical Twilight 5:26 AM CST 6:49 PM CST
Moon 8:16 AM CST (11/4) 6:17 PM CST (11/4)
Length of Visible Light 11h 09m
Length of Day
10h 10m
New Moon, 2% of the Moon is Illuminated
Nov 4
New Moon
Nov 9
First Quarter
Nov 17
Full
Nov 25
Last Quarter
Dec 2
New

Hourly Weather History & Observations

Time (CST) Temp. Windchill Dew Point Humidity Pressure Visibility Wind Dir Wind Speed Gust Speed Precip Events Conditions
12:15 AM 51.8 °F - 37.4 °F 58% 29.74 in 10.0 mi South 18.4 mph 25.3 mph N/A   Clear
12:35 AM 51.8 °F - 37.4 °F 58% 29.75 in 10.0 mi South 19.6 mph - N/A   Clear
12:55 AM 51.8 °F - 37.4 °F 58% 29.75 in 10.0 mi South 15.0 mph 21.9 mph N/A   Clear
1:15 AM 51.8 °F - 37.4 °F 58% 29.75 in 10.0 mi South 15.0 mph 20.7 mph N/A   Clear
1:35 AM 51.8 °F - 37.4 °F 58% 29.75 in 10.0 mi South 13.8 mph 19.6 mph N/A   Clear
1:55 AM 50.0 °F - 37.4 °F 62% 29.75 in 10.0 mi South 13.8 mph - N/A   Clear
2:15 AM 50.0 °F - 37.4 °F 62% 29.76 in 10.0 mi South 16.1 mph - N/A   Clear
2:35 AM 50.0 °F - 37.4 °F 62% 29.75 in 10.0 mi South 13.8 mph 21.9 mph N/A   Clear
2:55 AM 48.2 °F - 37.4 °F 66% 29.76 in 10.0 mi South 10.4 mph 17.3 mph N/A   Clear
3:15 AM 48.2 °F - 37.4 °F 66% 29.76 in 10.0 mi South 10.4 mph - N/A   Clear
3:35 AM 48.2 °F - 37.4 °F 66% 29.76 in 10.0 mi South 10.4 mph - N/A   Clear
3:55 AM 46.4 °F 41.5 °F 37.4 °F 71% 29.76 in 10.0 mi South 10.4 mph - N/A   Clear
4:15 AM 46.4 °F 42.4 °F 37.4 °F 71% 29.76 in 10.0 mi South 8.1 mph - N/A   Clear
4:35 AM 46.4 °F 42.4 °F 37.4 °F 71% 29.76 in 10.0 mi South 8.1 mph - N/A   Clear
4:55 AM 44.6 °F 40.2 °F 37.4 °F 76% 29.76 in 10.0 mi South 8.1 mph - N/A   Scattered Clouds
5:15 AM 44.6 °F 40.2 °F 37.4 °F 76% 29.76 in 10.0 mi South 8.1 mph - N/A   Mostly Cloudy
5:35 AM 46.4 °F 42.9 °F 39.2 °F 76% 29.77 in 10.0 mi South 6.9 mph - N/A   Overcast
5:55 AM 46.4 °F 41.9 °F 39.2 °F 76% 29.77 in 10.0 mi South 9.2 mph - N/A   Overcast
6:15 AM 46.4 °F 41.9 °F 39.2 °F 76% 29.79 in 10.0 mi SW 9.2 mph - N/A   Mostly Cloudy
6:35 AM 48.2 °F - 39.2 °F 71% 29.80 in 10.0 mi WSW 8.1 mph 18.4 mph N/A   Overcast
6:55 AM 46.4 °F 42.4 °F 39.2 °F 76% 29.81 in 10.0 mi SW 8.1 mph - N/A   Overcast
7:15 AM 46.4 °F 42.4 °F 39.2 °F 76% 29.80 in 10.0 mi South 8.1 mph - N/A   Overcast
7:35 AM 46.4 °F 44.3 °F 39.2 °F 76% 29.81 in 10.0 mi SSW 4.6 mph - N/A   Overcast
7:55 AM 46.4 °F 43.5 °F 39.2 °F 76% 29.83 in 10.0 mi WSW 5.8 mph - N/A   Overcast
8:15 AM 44.6 °F 40.2 °F 39.2 °F 81% 29.83 in 10.0 mi West 8.1 mph - N/A   Light Drizzle
8:35 AM 44.6 °F 38.8 °F 37.4 °F 76% 29.86 in 10.0 mi WNW 11.5 mph - N/A   Overcast
8:55 AM 42.8 °F 37.0 °F 35.6 °F 76% 29.88 in 10.0 mi NW 10.4 mph 17.3 mph N/A   Overcast
9:15 AM 42.8 °F 37.5 °F 35.6 °F 76% 29.89 in 10.0 mi NW 9.2 mph 16.1 mph N/A   Overcast
9:35 AM 44.6 °F 39.2 °F 37.4 °F 76% 29.91 in 10.0 mi NW 10.4 mph - N/A   Overcast
9:55 AM 44.6 °F 38.4 °F 37.4 °F 76% 29.92 in 10.0 mi NW 12.7 mph 24.2 mph N/A   Overcast
10:15 AM 44.6 °F 38.4 °F 37.4 °F 76% 29.94 in 10.0 mi NNW 12.7 mph 20.7 mph N/A   Overcast
10:35 AM 46.4 °F 40.7 °F 37.4 °F 71% 29.94 in 10.0 mi NNW 12.7 mph 18.4 mph N/A   Overcast
10:55 AM 46.4 °F 40.1 °F 37.4 °F 71% 29.95 in 10.0 mi NNW 15.0 mph 24.2 mph N/A   Overcast
11:15 AM 50.0 °F - 39.2 °F 66% 29.94 in 10.0 mi NNW 18.4 mph - N/A   Overcast
11:35 AM 50.0 °F - 37.4 °F 62% 29.95 in 10.0 mi NNW 15.0 mph 20.7 mph N/A   Overcast
11:55 AM 50.0 °F - 37.4 °F 62% 29.95 in 10.0 mi NNW 13.8 mph - N/A   Overcast
12:15 PM 50.0 °F - 37.4 °F 62% 29.97 in 10.0 mi NW 10.4 mph 17.3 mph N/A   Overcast
12:35 PM 50.0 °F - 37.4 °F 62% 29.98 in - NW 11.5 mph 18.4 mph N/A   Overcast
12:55 PM 50.0 °F - 37.4 °F 62% 29.98 in 10.0 mi NW 10.4 mph - N/A   Overcast
1:15 PM 51.8 °F - 35.6 °F 54% 29.98 in 10.0 mi WNW 11.5 mph - N/A   Mostly Cloudy
1:35 PM 51.8 °F - 33.8 °F 50% 29.97 in 10.0 mi NW 9.2 mph - N/A   Clear
1:55 PM 53.6 °F - 32.0 °F 44% 29.97 in 10.0 mi NNW 10.4 mph 17.3 mph N/A   Clear
2:15 PM 53.6 °F - 33.8 °F 47% 29.98 in 10.0 mi NW 12.7 mph 18.4 mph N/A   Clear
2:35 PM 53.6 °F - 32.0 °F 44% 29.99 in 10.0 mi WNW 12.7 mph - N/A   Clear
2:55 PM 53.6 °F - 32.0 °F 44% 30.00 in 10.0 mi WNW 15.0 mph - N/A   Clear
3:15 PM 53.6 °F - 30.2 °F 41% 30.00 in 10.0 mi NW 13.8 mph - N/A   Clear
3:35 PM 53.6 °F - 32.0 °F 44% 30.00 in 10.0 mi NW 9.2 mph - N/A   Clear
3:55 PM 53.6 °F - 32.0 °F 44% 30.01 in 10.0 mi NW 10.4 mph - N/A   Clear
4:15 PM 51.8 °F - 30.2 °F 44% 30.02 in 10.0 mi WNW 6.9 mph - N/A   Clear
4:35 PM 51.8 °F - 32.0 °F 47% 30.02 in 10.0 mi NW 5.8 mph - N/A   Clear
4:55 PM 50.0 °F - 32.0 °F 50% 30.03 in 10.0 mi NW 4.6 mph - N/A   Clear
5:15 PM 46.4 °F - 32.0 °F 57% 30.04 in 10.0 mi Calm Calm - N/A   Clear
5:35 PM 44.6 °F - 32.0 °F 61% 30.04 in 10.0 mi Calm Calm - N/A   Clear
5:55 PM 41.0 °F - 32.0 °F 70% 30.06 in 10.0 mi Calm Calm - N/A   Clear
6:15 PM 39.2 °F - 32.0 °F 75% 30.07 in 10.0 mi Calm Calm - N/A   Clear
6:35 PM 37.4 °F - 32.0 °F 81% 30.08 in 10.0 mi Calm Calm - N/A   Clear
6:55 PM 37.4 °F - 32.0 °F 81% 30.09 in 10.0 mi Calm Calm - N/A   Clear
7:15 PM 37.4 °F - 32.0 °F 81% 30.09 in 10.0 mi Calm Calm - N/A   Clear
7:35 PM 35.6 °F - 32.0 °F 87% 30.11 in 10.0 mi Calm Calm - N/A   Clear
7:55 PM 33.8 °F - 28.4 °F 81% 30.11 in 10.0 mi Calm Calm - N/A   Clear
8:15 PM 32.0 °F - 30.2 °F 93% 30.12 in 10.0 mi Calm Calm - N/A   Clear
8:35 PM 32.0 °F - 30.2 °F 93% 30.13 in 10.0 mi Calm Calm - N/A   Clear
8:55 PM 32.0 °F - 30.2 °F 93% 30.14 in 10.0 mi Calm Calm - N/A   Clear
9:15 PM 32.0 °F - 28.4 °F 87% 30.15 in 10.0 mi Calm Calm - N/A   Clear
9:35 PM 30.2 °F - 28.4 °F 93% 30.15 in 10.0 mi Calm Calm - N/A   Clear
9:55 PM 30.2 °F - 28.4 °F 93% 30.15 in 10.0 mi Calm Calm - N/A   Unknown
10:15 PM 30.2 °F - 28.4 °F 93% 30.15 in 10.0 mi Calm Calm - N/A   Clear
10:35 PM 30.2 °F - 28.4 °F 93% 30.16 in 10.0 mi Calm Calm - N/A   Clear
10:55 PM 30.2 °F - 28.4 °F 93% 30.16 in 10.0 mi Calm Calm - N/A   Clear
11:15 PM 30.2 °F - 28.4 °F 93% 30.16 in 10.0 mi Calm Calm - N/A   Clear
11:35 PM 28.4 °F - 26.6 °F 93% 30.16 in 10.0 mi Calm Calm - N/A   Clear
11:55 PM 28.4 °F - 26.6 °F 93% 30.16 in 10.0 mi Calm Calm - N/A   Clear